Date String (YYYY-MM-DD hh:mm:ss) UTC,Instrument flags,absolute air pressure of the measurement (hPa),sample flow rate (lpm),inlet stack bypass flow (lpm),air temperature of the measurement (°C),ambient temperature measured by the external sensor (°C),aerosol sample conditioner tube jacket temperature (°C),OPC LED temperature (°C),internal box temperature (°C),relative humidity of the measurement (%),span deviation,mass concentration of particles derived from Lorenz-Mie calculation of OPC scattering (μg/m³),mass concentration of particles derived from Lorenz-Mie calculation of OPC scattering (μg/m³),mass concentration of particles derived from Lorenz-Mie calculation of OPC scattering (μg/m³)
DateTimeUTC,F1_M11,P_M11,Q1_M11,Q2_M11,T1_M11,T2_M11,T3_M11,T4_M11,T5_M11,U1_M11,ZSPAN_M11,X0_M11,X2_M11,X1_M11
2023-07-07 00:00:00,SystemResetWarning,0831.3,4.99,000.00,032.0,027.9,000.0,040.0,031.6,33.2,0000.4,0012.92,0008.23,0007.77
2023-07-07 00:01:00,SystemResetWarning,0831.3,5.00,000.00,032.0,026.9,000.0,039.8,031.5,33.9,0000.1,0012.20,0008.21,0007.75
2023-07-07 00:02:00,SystemResetWarning,0831.2,5.01,000.00,032.0,025.8,000.0,039.7,031.4,33.4,-000.2,0012.06,0008.18,0007.72
2023-07-07 00:03:00,SystemResetWarning,0831.2,5.00,000.00,031.9,025.8,000.0,039.7,031.3,33.4,-000.4,0012.01,0008.14,0007.70
2023-07-07 00:04:00,SystemResetWarning,0831.3,5.01,000.00,031.7,026.0,000.0,039.7,031.2,33.7,-000.5,0012.40,0008.19,0007.72
2023-07-07 00:05:00,SystemResetWarning,0831.3,4.99,000.00,031.6,026.4,000.0,039.7,031.2,34.3,-000.1,0012.92,0008.24,0007.77
2023-07-07 00:06:00,SystemResetWarning,0831.3,4.99,000.00,031.6,026.8,000.0,039.7,031.3,34.8,-000.2,0012.38,0008.31,0007.83
2023-07-07 00:07:00,SystemResetWarning,0831.3,5.00,000.00,031.6,027.2,000.0,039.7,031.4,35.5,-000.6,0012.35,0008.36,0007.88
2023-07-07 00:08:00,SystemResetWarning,0831.4,5.01,000.00,031.7,027.5,000.0,039.7,031.6,35.5,-000.5,0012.94,0008.45,0007.96
2023-07-07 00:09:00,SystemResetWarning,0831.4,5.01,000.00,032.0,027.7,000.0,039.7,031.8,35.0,-001.0,0013.78,0008.57,0008.03
2023-07-07 00:10:00,SystemResetWarning,0831.5,4.98,000.00,032.2,027.9,000.0,039.7,031.9,34.6,-001.1,0013.97,0008.66,0008.11
2023-07-07 00:11:00,SystemResetWarning,0831.5,5.00,000.00,032.3,028.1,000.0,039.8,032.0,34.3,-001.3,0014.09,0008.75,0008.19
2023-07-07 00:12:00,SystemResetWarning,0831.5,5.01,000.00,032.4,028.1,000.0,039.8,032.0,33.8,-001.3,0014.14,0008.81,0008.25
2023-07-07 00:13:00,SystemResetWarning,0831.5,4.99,000.00,032.5,026.8,000.0,039.7,031.9,33.8,-001.9,0014.14,0008.85,0008.30
2023-07-07 00:14:00,SystemResetWarning,0831.4,4.99,000.00,032.5,025.5,000.0,039.7,031.6,34.4,-001.6,0014.31,0008.88,0008.30
2023-07-07 00:15:00,SystemResetWarning,0831.4,5.01,000.00,032.4,025.2,000.0,039.6,031.4,34.7,-001.3,0014.17,0008.86,0008.28
2023-07-07 00:16:00,SystemResetWarning,0831.4,4.99,000.00,032.2,025.4,000.0,039.7,031.2,35.2,-001.7,0014.13,0008.85,0008.25
2023-07-07 00:17:00,SystemResetWarning,0831.4,5.03,000.00,032.2,025.9,000.0,039.8,031.3,35.0,-002.1,0014.18,0008.85,0008.24
2023-07-07 00:18:00,SystemResetWarning,0831.4,4.96,000.00,032.3,026.3,000.0,039.8,031.5,34.7,-001.7,0014.71,0008.88,0008.24
2023-07-07 00:19:00,SystemResetWarning,0831.3,5.02,000.00,032.4,026.7,000.0,039.8,031.6,34.6,-002.2,0014.49,0008.87,0008.23
2023-07-07 00:20:00,SystemResetWarning,0831.3,5.00,000.00,032.4,027.1,000.0,039.9,031.6,34.4,-002.3,0013.78,0008.80,0008.21
2023-07-07 00:21:00,SystemResetWarning,0831.3,4.99,000.00,032.4,027.4,000.0,040.0,031.7,34.6,-002.2,0013.68,0008.73,0008.18
2023-07-07 00:22:00,SystemResetWarning,0831.2,4.98,000.00,032.4,027.7,000.0,040.0,031.7,34.9,-002.1,0013.52,0008.64,0008.11
2023-07-07 00:23:00,SystemResetWarning,0831.1,5.03,000.00,032.4,027.9,000.0,040.0,031.8,35.0,-002.0,0013.66,0008.59,0008.04
2023-07-07 00:24:00,SystemResetWarning,0831.1,4.96,000.00,032.5,028.1,000.0,040.1,031.9,35.0,-001.3,0013.65,0008.57,0008.00
2023-07-07 00:25:00,SystemResetWarning,0831.0,5.02,000.00,032.6,028.3,000.0,040.1,032.0,35.2,-001.4,0013.71,0008.58,0008.02
2023-07-07 00:26:00,SystemResetWarning,0831.0,4.99,000.00,032.8,028.4,000.0,040.2,032.1,34.5,-001.7,0013.81,0008.64,0008.07
2023-07-07 00:27:00,SystemResetWarning,0831.1,4.98,000.00,033.0,028.3,000.0,040.2,032.2,33.6,-001.6,0013.48,0008.71,0008.11
2023-07-07 00:28:00,SystemResetWarning,0831.1,5.00,000.00,033.2,026.8,000.0,040.1,032.1,33.1,-001.3,0013.74,0008.73,0008.14
2023-07-07 00:29:00,SystemResetWarning,0831.1,5.01,000.00,033.2,026.0,000.0,040.1,032.0,32.7,-001.4,0013.62,0008.70,0008.13
2023-07-07 00:30:00,SystemResetWarning,0831.1,5.01,000.00,033.1,026.1,000.0,040.1,031.8,32.9,-000.6,0013.54,0008.65,0008.09
2023-07-07 00:31:00,SystemResetWarning,0831.2,5.01,000.00,032.9,026.4,000.0,040.2,031.7,33.3,-000.1,0013.39,0008.61,0008.05
2023-07-07 00:32:00,SystemResetWarning,0831.2,4.99,000.00,032.8,026.8,000.0,040.3,031.7,33.6,-000.2,0013.17,0008.58,0008.02
2023-07-07 00:33:00,SystemResetWarning,0831.3,4.99,000.00,032.7,027.1,000.0,040.4,031.8,33.7,-000.2,0013.32,0008.61,0008.02
2023-07-07 00:34:00,SystemResetWarning,0831.3,5.00,000.00,032.7,027.4,000.0,040.4,031.8,33.7,-000.2,0013.17,0008.63,0008.04
2023-07-07 00:35:00,SystemResetWarning,0831.3,5.01,000.00,032.6,027.7,000.0,040.4,031.9,33.6,-000.2,0013.11,0008.59,0008.04
2023-07-07 00:36:00,SystemResetWarning,0831.3,4.99,000.00,032.6,028.0,000.0,040.4,031.9,33.8,-000.2,0013.75,0008.59,0008.04
2023-07-07 00:37:00,SystemResetWarning,0831.3,4.98,000.00,032.6,028.2,000.0,040.5,032.0,33.4,0000.3,0013.86,0008.59,0008.03
2023-07-07 00:38:00,SystemResetWarning,0831.3,5.01,000.00,032.5,028.3,000.0,040.5,032.0,34.0,0000.4,0013.72,0008.57,0008.04
2023-07-07 00:39:00,SystemResetWarning,0831.3,5.01,000.00,032.5,028.0,000.0,040.4,032.0,33.8,0000.5,0013.58,0008.55,0008.03
2023-07-07 00:40:00,SystemResetWarning,0831.3,4.98,000.00,032.5,026.3,000.0,040.2,031.8,33.7,0000.7,0013.10,0008.57,0008.05
2023-07-07 00:41:00,SystemResetWarning,0831.3,5.00,000.00,032.4,025.3,000.0,040.1,031.7,34.0,0000.4,0013.16,0008.62,0008.11
2023-07-07 00:42:00,SystemResetWarning,0831.3,5.02,000.00,032.2,025.2,000.0,040.0,031.4,34.2,0000.1,0013.31,0008.70,0008.17
2023-07-07 00:43:00,SystemResetWarning,0831.3,5.00,000.00,031.9,025.6,000.0,040.0,031.3,34.3,-000.0,0013.38,0008.77,0008.22
2023-07-07 00:44:00,SystemResetWarning,0831.3,5.00,000.00,031.8,026.0,000.0,040.0,031.3,34.7,-000.3,0013.40,0008.83,0008.27
2023-07-07 00:45:00,SystemResetWarning,0831.3,5.00,000.00,031.7,026.5,000.0,040.0,031.4,34.7,-000.7,0013.35,0008.83,0008.31
2023-07-07 00:46:00,SystemResetWarning,0831.3,4.97,000.00,031.7,026.9,000.0,040.0,031.5,35.1,-000.7,0013.39,0008.86,0008.34
2023-07-07 00:47:00,SystemResetWarning,0831.4,5.04,000.00,031.7,027.2,000.0,039.9,031.6,34.9,-000.9,0012.80,0008.89,0008.37
2023-07-07 00:48:00,SystemResetWarning,0831.3,4.97,000.00,031.9,027.5,000.0,039.9,031.7,34.8,-000.9,0012.46,0008.90,0008.37
2023-07-07 00:49:00,SystemResetWarning,0831.3,5.02,000.00,032.0,027.8,000.0,039.9,031.8,35.0,-001.2,0012.47,0008.92,0008.39
2023-07-07 00:50:00,SystemResetWarning,0831.3,4.99,000.00,032.1,028.0,000.0,039.9,031.9,35.1,-001.2,0012.40,0008.93,0008.39
2023-07-07 00:51:00,SystemResetWarning,0831.3,5.01,000.00,032.4,028.2,000.0,039.9,032.1,35.0,-001.4,0012.30,0008.91,0008.38
2023-07-07 00:52:00,SystemResetWarning,0831.3,4.99,000.00,032.7,028.3,000.0,040.0,032.2,34.1,-001.7,0012.20,0008.86,0008.36
2023-07-07 00:53:00,SystemResetWarning,0831.4,4.99,000.00,032.8,028.3,000.0,040.0,032.2,33.7,-001.4,0012.49,0008.80,0008.32
2023-07-07 00:54:00,SystemResetWarning,0831.3,5.00,000.00,033.0,027.0,000.0,040.0,032.2,33.4,-001.6,0012.67,0008.76,0008.30
2023-07-07 00:55:00,SystemResetWarning,0831.3,5.01,000.00,033.0,025.5,000.0,039.9,031.9,33.1,-001.3,0012.56,0008.70,0008.24
2023-07-07 00:56:00,SystemResetWarning,0831.3,5.02,000.00,032.9,025.1,000.0,039.9,031.7,33.3,-000.9,0012.81,0008.63,0008.18
2023-07-07 00:57:00,SystemResetWarning,0831.3,5.00,000.00,032.7,025.3,000.0,040.0,031.4,34.0,-000.7,0013.61,0008.55,0008.10
2023-07-07 00:58:00,SystemResetWarning,0831.3,5.00,000.00,032.5,025.8,000.0,040.1,031.4,34.2,-001.0,0013.88,0008.48,0008.03
2023-07-07 00:59:00,SystemResetWarning,0831.3,5.00,000.00,032.4,026.2,000.0,040.1,031.5,34.2,-000.9,0014.25,0008.39,0007.98
